Temperature
14 14 14 14 14 14 14 14 14 14 14 14 14 14 14 14 14 14 15 15 15 15 15 15 16 16 16 16 16 16 16 16 16 16 16 16 16 16
14 14 14 14 14 14 14 14 14 14 13 13 13 13 14 14 14 14 14 14 15 15 15 15 15 15 16 16 16 16 16 16 16 16 16 16 16 16
14 14 14 14 14 14 14 14 14 14 13 13 13 13 13 13 13 14 14 14 14 14 14 15 15 15 15 15 15 16 16 16 16 16 16 16 16 16
14 14 14 14 14 14 13 13 13 13 13 13 13 13 13 13 13 13 13 13 14 14 14 14 15 15 15 15 15 15 15 15 15 15 15 15 15 15
14 14 14 13 13 13 13 13 13 13 13 13 13 13 13 13 13 13 13 13 13 13 13 14 14 14 14 14 15 15 15 15 15 15 15 15 15 15
14 13 13 13 13 13 13 13 13 13 12 12 12 12 12 12 12 12 13 13 13 13 13 13 14 14 14 14 14 14 14 14 15 15 15 15 15 15
13 13 13 13 13 13 13 13 12 12 12 12 12 12 12 12 12 12 12 12 13 13 13 13 13 13 13 13 14 14 14 14 14 14 14 14 14 14
13 13 13 13 13 12 12 12 12 12 12 11 11 11 11 11 11 11 11 11 12 12 12 12 12 12 12 13 13 13 13 13 14 14 14 14 14 14
12 12 12 12 12 12 12 12 12 12 11 11 11 11 11 11 11 11 11 11 11 11 11 11 12 12 12 12 12 12 13 13 13 13 13 13 13 13
12 12 12 12 12 12 12 12 12 11 11 11 11 11 11 11 10 10 10 10 10 11 10 10 11 11 11 11 11 12 12 12 12 12 12 12 13 13
12 12 12 12 12 12 12 11 11 11 11 11 11 11 11 10 10 10 10 10 10 10 10 10 10 10 10 11 11 11 11 11 11 11 12 12 12 12
12 11 11 11 11 11 11 11 11 11 10 10 10 10 10 10 10 10 9 9 9 9 9 9 9 9 9 9 10 10 10 11 11 11 11 11 11 11
11 11 11 11 11 11 11 11 10 10 10 10 10 10 10 9 9 9 9 9 9 8 8 8 8 8 8 8 9 9 9 10 10 10 10 10 10 10
11 11 11 11 11 11 10 10 10 10 10 10 9 9 9 9 9 9 9 8 8 8 8 8 8 8 7 7 8 8 8 8 9 9 9 9 10 10
11 11 11 11 11 10 10 10 10 10 9 9 9 9 9 8 8 8 8 8 8 8 7 7 7 7 7 7 7 7 7 7 8 8 8 8 9 9
11 11 11 10 10 10 10 10 9 9 9 9 8 8 8 8 8 7 7 7 7 7 7 7 7 6 6 6 6 6 6 6 7 7 7 7 8 8
10 10 10 10 10 10 9 9 9 9 8 8 8 8 8 7 7 7 7 7 6 6 6 6 6 6 6 6 6 6 6 6 6 6 6 7 7 7
10 10 10 9 9 9 9 8 8 8 8 8 7 7 7 7 7 6 6 6 6 6 6 5 5 5 5 5 6 5 6 6 6 5 6 6 6 7
10 9 9 9 9 8 8 8 8 7 7 7 7 7 7 6 6 6 6 5 5 5 5 5 5 4 4 4 5 5 5 5 5 5 5 5 5 6
9 9 9 9 8 8 8 8 7 7 7 6 6 6 6 6 6 5 5 5 5 4 4 4 4 4 4 4 4 4 4 4 4 4 5 5 5 5
9 9 9 8 8 8 7 7 7 6 6 6 6 5 5 5 5 5 4 4 4 4 4 4 4 3 3 3 3 4 4 4 4 4 4 4 4 4
9 8 8 8 7 7 7 7 6 6 6 5 5 5 5 4 4 4 4 3 3 3 3 3 3 3 3 3 3 3 3 3 3 4 4 4 4 4
8 8 8 7 7 7 6 6 6 5 5 5 5 4 4 4 3 3 3 3 2 2 2 2 2 2 2 2 2 2 2 3 3 3 3 4 4 4
Wind_Speed
6 6 5 5 5 4 4 3 3 2 2 3 3 3 5 5 5 5 4 4 5 5 4 4 3 3 3 3 2 2 3 3 5 6 7 8 8 9
4 5 6 5 5 4 4 4 3 2 2 2 2 2 4 6 6 6 5 3 3 3 3 3 3 4 4 4 4 3 4 5 6 7 7 8 9 9
5 6 6 5 5 5 4 5 5 3 2 3 3 3 3 4 5 7 5 3 2 3 3 4 4 4 5 5 5 5 6 6 7 8 8 8 9 9
6 6 6 6 6 5 5 5 4 4 3 3 4 4 4 4 4 4 6 6 5 4 4 5 4 5 6 7 7 7 7 7 7 8 9 9 9 10
5 6 6 6 6 5 5 5 4 5 3 2 3 3 3 4 4 5 5 5 7 6 5 5 6 7 8 9 9 9 8 8 9 9 10 10 10 10
5 5 6 6 6 6 6 6 5 5 4 3 3 3 3 4 4 4 5 5 5 6 6 6 7 8 10 10 10 10 10 10 10 10 10 11 11 11
4 4 5 6 6 6 5 5 6 4 4 4 4 3 4 4 4 4 5 5 5 4 4 5 6 6 8 9 10 11 12 12 12 12 12 12 12 13
3 3 4 4 5 6 6 5 5 4 4 4 4 4 4 4 3 5 4 5 5 4 4 6 4 4 6 7 9 11 13 13 14 14 14 14 15 15
4 3 3 5 5 4 6 6 4 4 4 3 3 5 4 4 5 5 5 5 5 5 5 6 5 5 6 9 11 13 12 13 13 14 15 16 16 16
3 4 4 4 5 6 6 5 4 3 3 2 2 4 4 4 4 5 6 6 6 5 4 5 5 5 6 9 12 13 13 13 13 14 15 16 16 16
2 4 4 5 6 8 6 6 6 5 6 7 9 9 11 11 8 4 5 4 6 6 3 3 5 6 6 5 10 12 13 14 15 16 16 16 17 16
2 2 4 4 5 7 5 5 6 6 7 7 7 9 9 10 9 4 3 4 5 5 4 4 5 5 6 5 4 9 12 14 16 16 17 17 16 11
2 1 1 2 3 5 5 3 6 7 6 6 6 6 5 4 3 4 3 2 4 5 6 5 5 5 5 6 6 6 7 8 10 12 14 16 16 12
2 2 1 4 5 7 5 7 9 8 5 5 5 5 5 4 4 4 6 7 7 8 9 7 5 5 6 8 8 6 6 7 7 7 9 13 14 16
2 3 5 6 7 6 8 9 8 4 4 4 5 5 5 4 4 4 6 7 8 11 13 12 6 6 6 7 8 8 8 7 6 6 6 7 7 7
3 5 7 7 7 7 7 6 4 4 4 4 5 5 5 4 4 4 4 4 5 6 9 12 9 6 7 8 8 9 8 7 6 7 7 7 8 9
2 2 3 3 4 4 4 4 3 3 4 4 4 5 5 5 5 4 4 4 5 6 7 6 8 9 7 8 9 8 8 8 7 8 7 8 8 8
1 3 4 4 4 4 4 4 3 4 4 4 4 5 5 5 5 5 4 5 6 6 7 6 6 7 8 7 8 8 8 8 8 8 7 8 10 8
3 4 5 5 5 4 4 4 4 4 4 4 4 5 5 5 5 6 5 6 6 7 7 6 6 6 10 13 9 8 8 8 8 8 7 8 10 9
4 5 5 5 5 4 4 4 4 4 4 4 4 5 5 5 6 6 6 7 7 8 7 7 6 6 9 12 12 10 10 9 8 9 9 8 8 10
5 5 5 5 5 4 4 4 4 4 4 4 4 5 5 5 6 6 7 10 9 8 9 8 8 11 9 8 10 10 8 12 12 10 9 9 10 8
6 5 4 4 4 4 4 4 4 4 4 4 5 5 5 5 6 8 7 8 8 9 11 10 9 8 7 10 13 13 12 10 11 15 15 14 9 9
5 4 4 4 4 3 3 4 4 4 4 4 5 5 5 5 6 7 8 8 9 10 11 11 10 8 9 9 12 12 14 12 9 8 9 13 16 18
Wind_Direction
37 36 36 32 35 31 33 41 56 33 5 15 14 5 22 35 26 18 14 4 357 1 3 358 348 338 325 320 298 243 237 235 226 220 219 225 228 228
56 47 39 33 25 24 26 21 34 54 21 351 351 350 9 19 15 4 359 348 342 332 334 334 325 319 305 299 290 273 262 257 246 236 231 233 234 234
47 55 46 40 27 20 25 23 22 33 31 343 357 354 11 8 357 353 348 338 297 294 303 317 307 304 298 288 282 272 265 262 258 250 241 239 239 240
47 52 44 40 30 24 23 21 18 18 30 354 343 351 357 348 344 339 343 348 343 306 289 290 299 298 291 285 275 269 266 263 259 254 248 244 243 246
55 52 46 43 32 19 21 21 10 10 7 358 331 335 340 344 351 341 343 342 336 320 289 283 291 292 288 282 277 268 261 260 258 254 250 248 246 246
71 65 54 52 38 17 19 13 8 2 353 352 336 333 341 342 1 349 340 337 328 327 328 316 301 295 288 285 279 273 264 258 257 258 256 253 251 250
66 77 77 69 55 40 25 8 4 359 352 352 344 346 349 354 348 337 336 326 320 326 332 318 306 292 286 283 280 276 271 263 259 258 258 259 259 256
51 75 98 80 54 32 15 6 5 5 359 352 342 344 337 340 342 335 335 338 323 319 327 309 304 296 287 283 286 283 278 272 262 258 256 256 256 257
24 38 50 62 51 20 359 352 340 340 341 335 343 334 332 335 337 332 326 318 298 298 321 307 305 300 299 303 299 288 284 281 274 265 263 262 258 256
23 38 51 56 41 30 3 344 330 327 310 329 313 308 316 312 312 308 300 301 298 300 311 298 305 305 309 307 300 289 283 284 282 278 272 268 265 261
38 47 51 60 38 25 6 344 338 331 330 329 319 309 305 301 300 312 313 316 308 301 304 303 308 310 302 294 297 301 297 292 288 284 278 273 269 265
38 66 63 64 35 18 2 346 337 331 334 323 311 303 296 293 290 264 270 298 306 306 313 322 308 317 306 293 302 305 300 294 289 285 280 275 272 267
358 12 21 26 8 347 338 321 306 314 316 312 309 306 302 297 291 283 281 275 289 287 299 314 303 301 288 292 294 285 286 291 293 289 281 275 273 263
336 351 337 334 326 315 309 299 306 316 309 309 309 311 310 306 299 298 299 293 279 278 293 300 292 292 295 296 295 293 292 291 288 283 278 277 270 264
305 315 304 296 301 295 286 293 303 301 298 303 302 298 294 291 298 304 303 302 299 295 297 297 289 290 287 286 287 290 296 290 280 283 282 275 265 259
276 287 288 283 283 285 291 288 269 267 277 280 289 293 302 307 304 301 303 308 307 301 294 295 293 289 291 285 282 287 285 281 288 288 287 281 274 267
293 290 281 278 279 279 281 280 276 280 280 280 285 294 301 302 296 292 292 297 297 298 302 301 296 291 282 280 282 278 279 280 280 284 287 287 279 264
285 270 273 273 277 281 287 290 291 289 286 288 290 289 292 295 297 296 290 288 291 295 298 300 306 309 307 290 262 274 278 279 282 281 278 285 285 275
241 252 261 268 273 275 276 277 281 284 289 294 295 297 298 300 301 301 299 294 291 291 292 294 298 300 302 300 291 269 276 284 283 283 279 277 281 280
232 243 253 260 263 267 270 273 277 284 288 290 293 298 302 304 306 306 305 302 299 299 299 299 297 292 289 292 294 289 273 269 277 279 280 281 280 279
241 242 245 250 255 261 266 268 271 276 282 287 295 298 301 303 302 300 300 301 301 299 297 294 286 284 283 293 291 287 281 275 272 275 278 285 287 284
245 247 251 255 255 258 262 267 274 280 287 287 288 290 292 293 296 299 301 302 299 296 295 294 293 293 290 292 291 290 291 288 278 272 266 261 266 271
245 247 252 257 256 259 264 272 279 282 283 286 289 291 292 295 296 297 299 299 299 299 300 300 299 294 288 285 289 290 287 289 290 286 279 268 264 265
Height
1562 1562 1561 1561 1561 1560 1560 1560 1560 1559 1559 1559 1558 1558 1557 1556 1555 1554 1553 1553 1553 1552 1552 1552 1553 1553 1553 1553 1553 1554 1555 1556 1557 1558 1559 1561 1562 1563
1563 1563 1562 1562 1562 1561 1561 1560 1560 1560 1560 1560 1559 1558 1557 1556 1555 1554 1553 1552 1552 1552 1552 1552 1552 1552 1552 1552 1552 1552 1553 1554 1555 1556 1557 1558 1559 1560
1564 1564 1563 1563 1562 1562 1561 1561 1561 1560 1559 1559 1559 1558 1557 1555 1554 1553 1552 1552 1551 1551 1551 1550 1550 1550 1550 1550 1550 1550 1550 1551 1552 1552 1554 1555 1555 1557
1565 1565 1564 1564 1563 1562 1562 1561 1561 1560 1560 1558 1558 1557 1556 1555 1553 1552 1552 1551 1550 1549 1549 1549 1548 1548 1547 1547 1547 1547 1548 1548 1548 1549 1550 1550 1552 1552
1566 1565 1565 1564 1563 1563 1562 1561 1560 1560 1559 1558 1557 1556 1555 1554 1552 1551 1550 1549 1549 1548 1547 1547 1546 1545 1545 1545 1544 1544 1544 1544 1544 1545 1545 1546 1547 1548
1567 1566 1565 1564 1563 1562 1562 1561 1560 1559 1558 1557 1556 1555 1554 1553 1551 1550 1548 1547 1546 1546 1545 1544 1543 1543 1542 1541 1541 1541 1540 1540 1540 1540 1541 1541 1542 1542
1567 1566 1565 1564 1563 1562 1561 1560 1559 1558 1557 1556 1555 1554 1552 1551 1549 1548 1546 1545 1544 1543 1542 1541 1540 1539 1539 1538 1537 1537 1536 1536 1536 1536 1536 1536 1536 1537
1566 1566 1565 1564 1563 1562 1561 1560 1559 1557 1556 1555 1553 1552 1551 1549 1548 1546 1545 1543 1541 1541 1539 1537 1537 1536 1535 1534 1534 1533 1532 1531 1531 1530 1530 1530 1530 1530
1566 1565 1564 1563 1562 1561 1560 1558 1557 1556 1555 1554 1552 1551 1549 1547 1546 1544 1543 1541 1539 1538 1536 1534 1533 1532 1531 1530 1529 1528 1527 1526 1525 1525 1524 1524 1524 1523
1565 1564 1563 1562 1561 1560 1558 1557 1556 1554 1553 1552 1551 1549 1547 1546 1544 1542 1540 1538 1536 1535 1534 1531 1529 1527 1526 1525 1524 1523 1522 1521 1520 1519 1518 1517 1517 1516
1563 1563 1562 1561 1559 1558 1556 1555 1553 1552 1551 1549 1548 1546 1545 1543 1541 1539 1537 1535 1532 1531 1530 1528 1525 1522 1521 1519 1519 1518 1516 1515 1514 1512 1511 1510 1510 1509
1561 1561 1560 1559 1558 1556 1554 1552 1551 1549 1548 1546 1545 1543 1541 1540 1538 1537 1535 1532 1529 1527 1526 1524 1521 1518 1514 1513 1513 1511 1510 1509 1507 1506 1504 1503 1502 1501
1559 1558 1558 1557 1555 1554 1552 1550 1549 1547 1545 1543 1541 1540 1538 1536 1535 1533 1532 1530 1527 1524 1523 1520 1517 1514 1512 1507 1505 1505 1504 1502 1500 1498 1497 1496 1495 1494
1557 1556 1555 1554 1553 1551 1550 1548 1546 1544 1542 1540 1538 1536 1535 1533 1531 1529 1527 1525 1523 1521 1518 1516 1513 1510 1507 1502 1499 1497 1496 1495 1493 1491 1489 1488 1487 1486
1554 1553 1552 1551 1550 1548 1547 1545 1543 1541 1539 1537 1535 1533 1531 1529 1527 1525 1522 1520 1517 1516 1514 1511 1509 1505 1503 1498 1494 1491 1489 1487 1486 1484 1482 1480 1479 1478
1551 1550 1549 1548 1547 1545 1544 1542 1540 1538 1536 1534 1531 1529 1527 1525 1523 1520 1517 1514 1511 1509 1508 1506 1503 1500 1495 1492 1489 1485 1483 1480 1478 1476 1474 1472 1470 1469
1547 1546 1545 1544 1543 1542 1540 1538 1536 1534 1532 1530 1528 1525 1523 1520 1518 1516 1513 1510 1507 1503 1500 1499 1496 1493 1490 1486 1482 1478 1476 1473 1471 1469 1466 1462 1461 1460
1544 1542 1541 1540 1539 1538 1536 1534 1533 1531 1529 1526 1524 1521 1518 1516 1513 1510 1508 1505 1502 1498 1495 1493 1489 1485 1481 1478 1478 1473 1469 1466 1463 1461 1458 1455 1450 1450
1540 1539 1538 1537 1535 1534 1532 1531 1529 1527 1524 1522 1519 1517 1514 1511 1508 1505 1502 1500 1496 1493 1490 1488 1484 1481 1475 1469 1466 1467 1463 1459 1456 1453 1450 1447 1443 1440
1535 1534 1533 1532 1531 1529 1528 1526 1524 1522 1520 1517 1515 1512 1509 1506 1503 1500 1497 1494 1491 1487 1484 1481 1478 1475 1471 1465 1458 1455 1456 1453 1449 1445 1442 1439 1436 1433
1530 1529 1528 1527 1526 1524 1523 1521 1519 1517 1514 1512 1509 1507 1504 1501 1498 1495 1492 1489 1485 1481 1477 1474 1471 1469 1464 1459 1452 1446 1445 1445 1442 1439 1435 1431 1427 1424
1525 1524 1523 1522 1521 1519 1517 1516 1513 1511 1509 1506 1504 1501 1498 1495 1492 1489 1486 1482 1478 1475 1470 1466 1463 1460 1456 1451 1445 1439 1435 1433 1432 1430 1428 1425 1421 1416
1519 1518 1517 1516 1515 1514 1512 1510 1508 1505 1503 1500 1498 1495 1492 1489 1486 1483 1479 1476 1472 1468 1464 1459 1455 1452 1448 1443 1438 1432 1428 1424 1421 1419 1416 1415 1414 1411